Airport Information

KPAE - Snohomish Co Airport

KPAE 251053Z AUTO 07005KT 10SM CLR 07/04 A3007 RMK AO2 SLP184 T00670039


  • General Information

  • Coordinates: N 47°54'22"/ W 122°16'53"
  • Location: N/A
  • Surveyed Elevation: 606 MSL

Operations

Flow Name Active Runways Conditions

Green background denotes normal operations.


Common Frequencies

Callsign Frequency Position Name

More at the Document Center


Charts